Home   Weather   Cedar Rapids   Past weeks

Flag for USA Past Weather in Cedar Rapids, Iowa, USA — Yesterday and Last 2 Weeks

47 °F


Feels Like: 42 °F
Forecast: 45 / 75 °F
Wind: 9 mph from South

Location: Cedar Rapids Municipal Airport

Current Time: Oct 28, 2016 at 9:21:35 AM

Latest Report: Oct 28, 2016 at 8:52 AM

Visibility: 2 mi

Pressure: 30.09 "Hg

Humidity: 100%

Dew Point: 47 °F

Location of Cedar RapidsLocation

Past Weather in Cedar Rapids — Graph


Cedar Rapids Temperature Yesterday

Maximum temperature yesterday: 50 °F (at 4:52 PM)
Minimum temperature yesterday: 41 °F (at 8:52 PM)
Average temperature yesterday: 45 °F

High & Low Weather Summary for the Past Weeks

High85 °F (Oct 17, 3:52 PM)100% (Oct 14, 4:52 AM)30.43 "Hg (Oct 14, 4:52 AM)
Low31 °F (Oct 21, 6:52 AM)28% (Oct 23, 2:52 PM)29.31 "Hg (Oct 17, 4:52 PM)
Average54 °F82%30.05 "Hg
* Reported Oct 13 8:52 AM — Oct 28 8:03 AM, Cedar Rapids, Weather by CustomWeather, © 2016

Note: Actual official high and low records may vary slightly from our data, if they occured in-between our weather recording intervals... More about our weather records


Cedar Rapids Weather History for the Previous 24 Hours

Scroll right to see more
Time TempWeatherWind HumidityBarometerVisibility
8:03 AM
Fri, Oct 28
46 °FFog.12 mph100%30.07 "Hg3 mi
7:52 AM46 °FFog.14 mph100%30.09 "Hg3 mi
6:52 AM45 °FFog.10 mph100%30.09 "Hg5 mi
5:52 AM45 °FFog.10 mph100%30.10 "Hg6 mi
4:52 AM45 °FFog.9 mph100%30.10 "Hg6 mi
3:52 AM44 °FFog.9 mph100%30.12 "Hg6 mi
2:52 AM44 °FFog.7 mph100%30.15 "Hg6 mi
1:52 AM42 °FFog.8 mph100%30.16 "Hg4 mi
12:52 AM42 °FFog.8 mph100%30.17 "Hg4 mi
11:52 PM
Thu, Oct 27
41 °FFog.7 mph100%30.17 "Hg4 mi
10:52 PM41 °FFog.6 mph100%30.19 "Hg4 mi
9:52 PM42 °FFog.7 mph100%30.19 "Hg5 mi
8:52 PM41 °FClear.7 mph100%30.20 "Hg7 mi
7:52 PM45 °FClear.6 mph97%30.19 "Hg9 mi
6:52 PM46 °FClear.9 mph93%30.18 "Hg10 mi
5:52 PM48 °FSunny.5 mph86%30.19 "Hg10 mi
4:52 PM50 °FPassing clouds.8 mph83%30.19 "Hg10 mi
3:52 PM49 °FOvercast.9 mph84%30.21 "Hg10 mi
2:52 PM48 °FOvercast.7 mph86%30.23 "Hg10 mi
1:52 PM47 °FOvercast.5 mph90%30.25 "Hg10 mi
12:52 PM47 °FOvercast.No wind90%30.26 "Hg10 mi
11:52 AM44 °FLow clouds.3 mph93%30.29 "Hg10 mi
10:52 AM42 °FLow clouds.No wind100%30.28 "Hg7 mi
9:52 AM42 °FLow clouds.5 mph100%30.28 "Hg7 mi
Weather by CustomWeather, © 2016

See weather overviewHow to use our weather pages